Hot Springs, VA

3:36 PM EDT on July 26, 2017 (GMT -0400)
Ingalls

Weather History for KHSP - December, 2011

Change the Weather History Date:

Friday, December 2, 2011

  Actual Average Record
Temperature  
Mean Temperature 38 °F -  
Max Temperature 44 °F 40 °F 60 °F (1998)
Min Temperature 33 °F 27 °F 17 °F (2002)
Degree Days  
Heating Degree Days 26    
Moisture  
Dew Point 18 °F    
Average Humidity 45    
Maximum Humidity 56    
Minimum Humidity 34    
Precipitation  
Precipitation 0.00 in - - ()
Sea Level Pressure  
Sea Level Pressure 30.35 in    
Wind  
Wind Speed 13 mph (West)    
Max Wind Speed 18 mph    
Max Gust Speed 22 mph    
Visibility 10 miles    
Events      
Averages and records for this station are not official NWS values.
T = Trace of Precipitation, MM = Missing Value Source: NWS Daily Summary

Daily Weather History Graph

Daily Weather History Graph

Search for Another Location

Airport or City:

Trip Planner

Search our weather history database for the weather conditions in past years. The results will help you decide how hot, cold, wet, or windy it might be!

Date:

Astronomy

Dec. 02, 2011 Rise Set
Actual Time 7:17 AM EST 5:00 PM EST
Civil Twilight 6:48 AM EST 5:29 PM EST
Nautical Twilight 6:15 AM EST 6:01 PM EST
Astronomical Twilight 5:43 AM EST 6:33 PM EST
Moon 12:32 PM EST (12/2) No Moon Set
Length of Visible Light 10h 41m
Length of Day
9h 43m
First Quarter, 53% of the Moon is Illuminated
Dec 2
First Quarter
Dec 10
Full
Dec 17
Last Quarter
Dec 24
New
Jan 1
First Quarter

Hourly Weather History & Observations

Time (EST) Temp. Windchill Dew Point Humidity Pressure Visibility Wind Dir Wind Speed Gust Speed Precip Events Conditions
12:15 AM 35.6 °F 27.1 °F 14.0 °F 41% 30.31 in 10.0 mi WSW 12.7 mph - N/A   Clear
12:35 AM 35.6 °F 27.5 °F 15.8 °F 44% 30.30 in 10.0 mi WSW 11.5 mph - N/A   Clear
12:55 AM 35.6 °F 27.5 °F 15.8 °F 44% 30.30 in 10.0 mi West 11.5 mph - N/A   Clear
1:15 AM 35.6 °F 27.1 °F 17.6 °F 48% 30.30 in 10.0 mi West 12.7 mph - N/A   Clear
1:55 AM 35.6 °F 27.1 °F 17.6 °F 48% 30.30 in 10.0 mi WSW 12.7 mph - N/A   Clear
2:15 AM 35.6 °F 26.6 °F 17.6 °F 48% 30.30 in 10.0 mi West 13.8 mph - N/A   Clear
2:35 AM 35.6 °F 26.6 °F 17.6 °F 48% 30.30 in 10.0 mi West 13.8 mph - N/A   Clear
2:55 AM 35.6 °F 26.6 °F 15.8 °F 44% 30.30 in 10.0 mi West 13.8 mph - N/A   Clear
3:15 AM 37.4 °F 29.3 °F 15.8 °F 41% 30.30 in 10.0 mi West 12.7 mph - N/A   Clear
3:35 AM 35.6 °F 27.1 °F 17.6 °F 48% 30.30 in 10.0 mi West 12.7 mph - N/A   Clear
3:55 AM 35.6 °F 27.1 °F 17.6 °F 48% 30.29 in 10.0 mi West 12.7 mph - N/A   Clear
4:15 AM 35.6 °F 26.6 °F 17.6 °F 48% 30.29 in 10.0 mi West 13.8 mph - N/A   Clear
4:35 AM 35.6 °F 26.2 °F 17.6 °F 48% 30.29 in 10.0 mi West 15.0 mph 20.7 mph N/A   Clear
4:55 AM 35.6 °F 26.2 °F 15.8 °F 44% 30.29 in 10.0 mi West 15.0 mph - N/A   Clear
5:15 AM 35.6 °F 26.2 °F 15.8 °F 44% 30.29 in 10.0 mi West 15.0 mph - N/A   Clear
5:35 AM 35.6 °F 26.6 °F 15.8 °F 44% 30.29 in 10.0 mi West 13.8 mph - N/A   Clear
6:15 AM 35.6 °F 26.2 °F 15.8 °F 44% 30.30 in 10.0 mi West 15.0 mph - N/A   Clear
6:35 AM 33.8 °F 24.3 °F 14.0 °F 44% 30.31 in 10.0 mi West 13.8 mph - N/A   Clear
6:55 AM 33.8 °F 24.3 °F 15.8 °F 48% 30.31 in 10.0 mi West 13.8 mph - N/A   Clear
7:15 AM 33.8 °F 24.3 °F 15.8 °F 48% 30.32 in 10.0 mi West 13.8 mph - N/A   Clear
7:35 AM 33.8 °F 23.5 °F 14.0 °F 44% 30.32 in 10.0 mi West 16.1 mph - N/A   Clear
7:55 AM 33.8 °F 23.9 °F 15.8 °F 48% 30.33 in 10.0 mi West 15.0 mph - N/A   Clear
8:15 AM 33.8 °F 23.9 °F 15.8 °F 48% 30.34 in 10.0 mi West 15.0 mph - N/A   Clear
8:35 AM 33.8 °F 24.3 °F 15.8 °F 48% 30.34 in 10.0 mi West 13.8 mph - N/A   Clear
9:15 AM 35.6 °F 26.6 °F 17.6 °F 48% 30.35 in 10.0 mi West 13.8 mph - N/A   Clear
9:55 AM 35.6 °F 26.6 °F 17.6 °F 48% 30.35 in 10.0 mi West 13.8 mph - N/A   Clear
10:15 AM 37.4 °F 28.9 °F 19.4 °F 48% 30.36 in 10.0 mi West 13.8 mph - N/A   Clear
10:35 AM 37.4 °F 28.9 °F 21.2 °F 52% 30.36 in 10.0 mi West 13.8 mph 21.9 mph N/A   Clear
10:55 AM 39.2 °F 30.8 °F 19.4 °F 45% 30.36 in 10.0 mi West 15.0 mph - N/A   Clear
11:15 AM 37.4 °F 27.5 °F 21.2 °F 52% 30.36 in 10.0 mi West 18.4 mph - N/A   Clear
11:35 AM 39.2 °F 30.2 °F 21.2 °F 49% 30.36 in 10.0 mi West 17.3 mph - N/A   Clear
11:55 AM 39.2 °F 30.8 °F 19.4 °F 45% 30.35 in 10.0 mi West 15.0 mph 21.9 mph N/A   Clear
12:15 PM 39.2 °F 30.8 °F 19.4 °F 45% 30.35 in 10.0 mi West 15.0 mph - N/A   Clear
12:35 PM 41.0 °F 32.8 °F 19.4 °F 42% 30.36 in 10.0 mi West 16.1 mph - N/A   Clear
12:55 PM 42.8 °F 35.8 °F 19.4 °F 39% 30.35 in 10.0 mi West 13.8 mph 19.6 mph N/A   Clear
1:15 PM 42.8 °F 36.2 °F 19.4 °F 39% 30.35 in 10.0 mi West 12.7 mph 18.4 mph N/A   Clear
1:35 PM 44.6 °F 37.8 °F 17.6 °F 34% 30.35 in 10.0 mi West 15.0 mph 21.9 mph N/A   Clear
1:55 PM 44.6 °F 38.4 °F 17.6 °F 34% 30.35 in 10.0 mi West 12.7 mph - N/A   Clear
2:15 PM 44.6 °F 38.4 °F 17.6 °F 34% 30.35 in 10.0 mi West 12.7 mph - N/A   Clear
2:35 PM 44.6 °F 38.4 °F 17.6 °F 34% 30.35 in 10.0 mi West 12.7 mph 19.6 mph N/A   Clear
2:55 PM 44.6 °F 38.8 °F 17.6 °F 34% 30.36 in 10.0 mi West 11.5 mph 19.6 mph N/A   Clear
3:15 PM 44.6 °F 38.1 °F 17.6 °F 34% 30.36 in 10.0 mi West 13.8 mph 19.6 mph N/A   Clear
3:35 PM 44.6 °F 38.1 °F 17.6 °F 34% 30.36 in 10.0 mi West 13.8 mph - N/A   Clear
3:55 PM 44.6 °F 37.4 °F 17.6 °F 34% 30.36 in 10.0 mi West 16.1 mph 20.7 mph N/A   Clear
4:15 PM 44.6 °F 38.4 °F 17.6 °F 34% 30.37 in 10.0 mi West 12.7 mph 19.6 mph N/A   Clear
4:35 PM 42.8 °F 36.2 °F 17.6 °F 36% 30.37 in 10.0 mi West 12.7 mph 17.3 mph N/A   Clear
4:55 PM 42.8 °F 36.2 °F 17.6 °F 36% 30.38 in 10.0 mi WNW 12.7 mph 17.3 mph N/A   Clear
5:15 PM 41.0 °F 34.7 °F 17.6 °F 39% 30.39 in 10.0 mi WNW 10.4 mph 16.1 mph N/A   Clear
5:35 PM 41.0 °F 38.0 °F 17.6 °F 39% 30.40 in 10.0 mi WNW 4.6 mph - N/A   Clear
5:55 PM 39.2 °F 35.0 °F 19.4 °F 45% 30.41 in 10.0 mi NW 5.8 mph - N/A   Clear
6:15 PM 39.2 °F 32.5 °F 21.2 °F 49% 30.42 in 10.0 mi NNW 10.4 mph - N/A   Clear
6:35 PM 39.2 °F 37.0 °F 21.2 °F 49% 30.43 in 10.0 mi NNW 3.5 mph - N/A   Clear
6:55 PM 37.4 °F 30.3 °F 21.2 °F 52% 30.43 in 10.0 mi NW 10.4 mph 18.4 mph N/A   Clear
7:15 PM 37.4 °F 32.1 °F 21.2 °F 52% 30.45 in 10.0 mi North 6.9 mph - N/A   Clear
7:35 PM 37.4 °F 32.8 °F 21.2 °F 52% 30.45 in 10.0 mi NW 5.8 mph - N/A   Clear
7:55 PM 35.6 °F 29.9 °F 21.2 °F 56% 30.46 in 10.0 mi NNW 6.9 mph - N/A   Clear
8:15 PM 35.6 °F 30.7 °F 21.2 °F 56% 30.47 in 10.0 mi NNW 5.8 mph - N/A   Clear
8:35 PM 35.6 °F 31.7 °F 21.2 °F 56% 30.48 in 10.0 mi NNW 4.6 mph - N/A   Clear
8:55 PM 35.6 °F 30.7 °F 21.2 °F 56% 30.47 in 10.0 mi NNW 5.8 mph - N/A   Clear
9:35 PM 35.6 °F 31.7 °F 21.2 °F 56% 30.49 in 10.0 mi NW 4.6 mph - N/A   Clear
9:55 PM 33.8 °F - 21.2 °F 60% 30.49 in 10.0 mi Calm Calm - N/A   Clear
10:15 PM 33.8 °F - 21.2 °F 60% 30.48 in 10.0 mi Calm Calm - N/A   Clear
10:35 PM 33.8 °F - 23.0 °F 65% 30.49 in 10.0 mi Calm Calm - N/A   Clear
10:55 PM 33.8 °F - 23.0 °F 65% 30.49 in 10.0 mi Calm Calm - N/A   Clear
11:15 PM 37.4 °F 34.9 °F 24.8 °F 60% 30.49 in 10.0 mi WSW 3.5 mph - N/A   Clear
11:35 PM 33.8 °F - 24.8 °F 70% 30.49 in 10.0 mi Calm Calm - N/A   Clear
11:55 PM 35.6 °F 32.8 °F 24.8 °F 65% 30.50 in 10.0 mi SSW 3.5 mph - N/A   Clear